Simultaneous Nadir Overpasses (SNOs) Predictions

Prediction of SNOs between GOES-16 and AQUA Satellite Orbit:

Table of predicted SNOs for the next 14.0 days since TLE Epoch: 5/27/2023
Index Date Time (GOES-16) GOES-16 Lat,Lon AQUA Lat,Lon Distance(km) Time Diff (sec)
1 05/28/2023 18:40:58 0.02, -75.20 0.54, -72.77 275.94 80
2 05/29/2023 06:59:04 -0.02, -75.21 0.53, -77.81 295.84 80
3 05/31/2023 06:47:43 -0.02, -75.22 -0.23, -74.39 95.50 80
4 05/31/2023 19:05:57 0.03, -75.22 -0.86, -79.45 480.78 80
5 06/02/2023 06:33:40 -0.03, -75.24 -0.96, -70.96 487.06 80
6 06/02/2023 18:51:54 0.03, -75.24 -0.13, -76.03 89.10 80
7 06/04/2023 18:40:31 0.03, -75.26 0.63, -72.60 302.77 80
8 06/05/2023 06:58:37 -0.04, -75.27 0.48, -77.63 268.73 80
9 06/07/2023 06:47:13 -0.04, -75.29 -0.24, -74.20 123.64 80
10 06/07/2023 19:05:28 0.04, -75.29 -0.83, -79.26 452.37 80
11 06/09/2023 18:51:24 0.04, -75.32 -0.07, -75.84 58.83 80
